Location: Cave
(41.8160°N, 12.9350°E)
Time: 05:46:40
(UTC+02:00)

ISS - Pass Details

Date: 13 July 2019
Orbit: 409 x 418 km, 51.6° (Epoch: 22 July)

Event Time Altitude Azimuth Distance (km) Brightness Sun altitude
Exits shadow 00:51:03 17° 42° (NE) 1,137 -1.1 -26.1°
Drops below altitude 10° 00:51:57 10° 47° (NE) 1,483 -0.6 -26.1°
Enters shadow 01:58:45 -49° 253° (WSW) 10,132 3.3 -25.5°
